{"data":{"norad_id":62399,"intl_designator":"2024-247Y","name":"BANDWAGON-2 OBJECT Y","alt_names":[],"object_type":"PAYLOAD","status":"ACTIVE","operator":null,"country":"TBD","launch_date":"2024-12-21","launch_site_code":"AFWTR","launch_vehicle":null,"mission":null,"orbit_class":"UNKNOWN","rcs_meters":null,"size_class":null,"mass_kg":null,"dimensions":null,"purposes":[],"wikipedia_slug":null,"has_3d_model":false,"image_url":null,"decayed_at":null,"tle_current":{"epoch":"2026-09-22T17:39:41.092992Z","epoch_age_seconds":118789,"freshness":"FRESH","line1":"1 62399U 24247Y   26265.73589228  .00037403  00000+0  53373-3 0  9993","line2":"2 62399  44.9921  62.8874 0005667 251.4704 108.5574 15.55678987 98561","mean_motion":15.55678987,"eccentricity":0.0005667,"inclination_deg":44.9921,"raan_deg":62.8874,"arg_perigee_deg":251.4704,"mean_anomaly_deg":108.5574,"bstar":0.00053373,"rev_number":9856,"period_min":92.564083723784,"perigee_km":396.33834384244,"apogee_km":404.02088789487,"semimajor_km":6778.3166158687,"source":"CELESTRAK","updated_at":"2026-09-23T09:00:21.395970Z"}}}